• In Deutschland
  • Länderverzeichnis
  • Für 7 Tage
  • Wassertemperatur
  • Satellitenkarten
  • Wetterkarte
  • Widgets
  • user-avatar
    Anmelden

    Stündliche Wetter Rheinbach

    Heute, 21 Februar, Mittwoch

    Zeit Temperatur Niederschläge Wind Luftdruck Luftfeuchtigkeit
    00:00 -3°C° 0 mm 2 m/S 749 mmHg 86%
    01:00 -3°C° 0 mm 2 m/S 749 mmHg 86%
    02:00 -4°C° 0 mm 2 m/S 749 mmHg 85%
    03:00 -2°C° 0 mm 1 m/S 750 mmHg 85%
    04:00 -4°C° 0 mm 2 m/S 750 mmHg 85%
    05:00 -4°C° 0 mm 2 m/S 750 mmHg 85%
    06:00 -4°C° 0 mm 2 m/S 750 mmHg 85%
    07:00 -3°C° 0 mm 2 m/S 750 mmHg 79%
    08:00 -2°C° 0 mm 2 m/S 750 mmHg 74%
    09:00 +1°C° 0 mm 2 m/S 750 mmHg 68%
    10:00 +1°C° 0 mm 3 m/S 750 mmHg 63%
    11:00 +2°C° 0 mm 3 m/S 750 mmHg 58%
    12:00 +3°C° 0 mm 3 m/S 750 mmHg 53%
    13:00 +3°C° 0 mm 3 m/S 750 mmHg 54%
    14:00 +3°C° 0 mm 3 m/S 749 mmHg 54%
    15:00 +3°C° 0 mm 3 m/S 749 mmHg 55%
    16:00 +2°C° 0 mm 3 m/S 749 mmHg 61%
    17:00 0°C° 0 mm 3 m/S 749 mmHg 68%
    18:00 -1°C° 0 mm 2 m/S 749 mmHg 75%
    19:00 -2°C° 0 mm 2 m/S 749 mmHg 77%
    20:00 -2°C° 0 mm 2 m/S 750 mmHg 79%
    21:00 -3°C° 0 mm 2 m/S 750 mmHg 81%
    22:00 -3°C° 0 mm 2 m/S 750 mmHg 82%
    23:00 -3°C° 0 mm 2 m/S 750 mmHg 82%

    Morgen, 22 Februar, Donnerstag

    Zeit Temperatur Niederschläge Wind Luftdruck Luftfeuchtigkeit
    00:00 -3°C° 0 mm 2 m/S 750 mmHg 82%
    01:00 -4°C° 0 mm 3 m/S 749 mmHg 82%
    02:00 -4°C° 0 mm 3 m/S 749 mmHg 82%
    03:00 -4°C° 0 mm 3 m/S 749 mmHg 82%
    04:00 -4°C° 0 mm 3 m/S 749 mmHg 81%
    05:00 -5°C° 0 mm 3 m/S 749 mmHg 79%
    06:00 -5°C° 0 mm 3 m/S 749 mmHg 78%
    07:00 -4°C° 0 mm 4 m/S 749 mmHg 70%
    08:00 -3°C° 0 mm 4 m/S 750 mmHg 63%
    09:00 -2°C° 0 mm 5 m/S 750 mmHg 55%
    10:00 -1°C° 0 mm 5 m/S 750 mmHg 50%
    11:00 0°C° 0 mm 5 m/S 749 mmHg 45%
    12:00 +1°C° 0 mm 5 m/S 749 mmHg 41%
    13:00 +1°C° 0 mm 5 m/S 749 mmHg 42%
    14:00 +1°C° 0 mm 5 m/S 749 mmHg 44%
    15:00 +1°C° 0 mm 5 m/S 748 mmHg 45%
    16:00 0°C° 0 mm 5 m/S 748 mmHg 52%
    17:00 -2°C° 0 mm 4 m/S 749 mmHg 58%
    18:00 -3°C° 0 mm 4 m/S 749 mmHg 64%
    19:00 -3°C° 0 mm 4 m/S 749 mmHg 66%
    20:00 -4°C° 0 mm 4 m/S 749 mmHg 69%
    21:00 -4°C° 0 mm 4 m/S 749 mmHg 71%
    22:00 -4°C° 0 mm 4 m/S 749 mmHg 71%
    23:00 -4°C° 0 mm 3 m/S 749 mmHg 71%

    übermorgen, 23 Februar, Freitag

    Zeit Temperatur Niederschläge Wind Luftdruck Luftfeuchtigkeit
    00:00 -5°C° 0 mm 3 m/S 749 mmHg 72%
    01:00 -5°C° 0 mm 3 m/S 749 mmHg 71%
    02:00 -5°C° 0 mm 3 m/S 749 mmHg 70%
    03:00 -5°C° 0 mm 4 m/S 748 mmHg 69%
    04:00 -5°C° 0 mm 4 m/S 748 mmHg 68%
    05:00 -5°C° 0 mm 4 m/S 749 mmHg 67%
    06:00 -5°C° 0 mm 4 m/S 749 mmHg 66%
    07:00 -5°C° 0 mm 4 m/S 749 mmHg 60%
    08:00 -5°C° 0 mm 5 m/S 749 mmHg 53%
    09:00 -4°C° 0 mm 5 m/S 749 mmHg 47%
    10:00 -2°C° 0 mm 5 m/S 749 mmHg 43%
    11:00 -1°C° 0 mm 5 m/S 749 mmHg 38%
    12:00 0°C° 0 mm 5 m/S 749 mmHg 33%
    13:00 0°C° 0 mm 5 m/S 748 mmHg 33%
    14:00 0°C° 0 mm 5 m/S 748 mmHg 33%
    15:00 +1°C° 0 mm 5 m/S 748 mmHg 33%
    16:00 -1°C° 0 mm 5 m/S 748 mmHg 37%
    17:00 -2°C° 0 mm 4 m/S 748 mmHg 41%
    18:00 -3°C° 0 mm 4 m/S 748 mmHg 45%
    19:00 -4°C° 0 mm 4 m/S 748 mmHg 47%
    20:00 -4°C° 0 mm 4 m/S 748 mmHg 48%
    21:00 -5°C° 0 mm 5 m/S 749 mmHg 50%
    22:00 -4°C° 0 mm 4 m/S 749 mmHg 51%
    23:00 -4°C° 0 mm 4 m/S 749 mmHg 51%

    24 Februar, Samstag

    Zeit Temperatur Niederschläge Wind Luftdruck Luftfeuchtigkeit
    00:00 -4°C° 0 mm 4 m/S 749 mmHg 51%
    01:00 -4°C° 0 mm 4 m/S 749 mmHg 50%
    02:00 -4°C° 0 mm 4 m/S 748 mmHg 49%
    03:00 -4°C° 0 mm 4 m/S 748 mmHg 48%
    04:00 -5°C° 0 mm 4 m/S 748 mmHg 47%
    05:00 -5°C° 0 mm 4 m/S 749 mmHg 46%
    06:00 -5°C° 0 mm 4 m/S 749 mmHg 46%
    07:00 -5°C° 0 mm 5 m/S 749 mmHg 42%
    08:00 -4°C° 0 mm 5 m/S 749 mmHg 39%
    09:00 -3°C° 0 mm 6 m/S 750 mmHg 35%
    10:00 -2°C° 0 mm 6 m/S 750 mmHg 33%
    11:00 -1°C° 0 mm 6 m/S 749 mmHg 31%
    12:00 +1°C° 0 mm 6 m/S 749 mmHg 29%
    13:00 +1°C° 0 mm 6 m/S 749 mmHg 31%
    14:00 +1°C° 0 mm 6 m/S 749 mmHg 33%
    15:00 +1°C° 0 mm 6 m/S 749 mmHg 34%
    16:00 0°C° 0 mm 5 m/S 749 mmHg 39%
    17:00 -1°C° 0 mm 5 m/S 750 mmHg 43%
    18:00 -2°C° 0 mm 5 m/S 750 mmHg 47%
    19:00 -4°C° 0 mm 5 m/S 751 mmHg 50%
    20:00 -4°C° 0 mm 5 m/S 751 mmHg 52%
    21:00 -5°C° 0 mm 5 m/S 751 mmHg 54%
    22:00 -5°C° 0 mm 5 m/S 752 mmHg 55%
    23:00 -5°C° 0 mm 5 m/S 752 mmHg 56%

    25 Februar, Sonntag

    Zeit Temperatur Niederschläge Wind Luftdruck Luftfeuchtigkeit
    00:00 -6°C° 0 mm 5 m/S 752 mmHg 57%
    01:00 -6°C° 0 mm 5 m/S 752 mmHg 57%
    02:00 -6°C° 0 mm 5 m/S 752 mmHg 56%
    03:00 -7°C° 0 mm 5 m/S 752 mmHg 55%
    04:00 -7°C° 0 mm 5 m/S 753 mmHg 54%
    05:00 -7°C° 0 mm 5 m/S 753 mmHg 52%
    06:00 -7°C° 0 mm 5 m/S 753 mmHg 51%
    07:00 -7°C° 0 mm 5 m/S 754 mmHg 49%
    08:00 -6°C° 0 mm 5 m/S 754 mmHg 48%
    09:00 -6°C° 0 mm 5 m/S 754 mmHg 46%
    10:00 -5°C° 0 mm 5 m/S 754 mmHg 42%
    11:00 -4°C° 0 mm 5 m/S 754 mmHg 39%
    12:00 -2°C° 0 mm 5 m/S 754 mmHg 35%
    13:00 -2°C° 0 mm 5 m/S 754 mmHg 33%
    14:00 -4°C° 0 mm 5 m/S 754 mmHg 31%
    15:00 -3°C° 0 mm 4 m/S 754 mmHg 30%
    16:00 -4°C° 0 mm 4 m/S 754 mmHg 32%
    17:00 -5°C° 0 mm 4 m/S 754 mmHg 35%
    18:00 -6°C° 0 mm 3 m/S 755 mmHg 38%
    19:00 -6°C° 0 mm 3 m/S 755 mmHg 38%
    20:00 -6°C° 0 mm 3 m/S 755 mmHg 38%
    21:00 -7°C° 0 mm 3 m/S 755 mmHg 38%
    22:00 -7°C° 0 mm 3 m/S 755 mmHg 39%
    23:00 -7°C° 0 mm 3 m/S 755 mmHg 40%

    26 Februar, Montag

    Zeit Temperatur Niederschläge Wind Luftdruck Luftfeuchtigkeit
    00:00 -8°C° 0 mm 3 m/S 755 mmHg 40%
    01:00 -8°C° 0 mm 3 m/S 755 mmHg 42%
    02:00 -8°C° 0 mm 3 m/S 755 mmHg 43%
    03:00 -8°C° 0 mm 3 m/S 755 mmHg 44%
    04:00 -9°C° 0 mm 3 m/S 755 mmHg 45%
    05:00 -9°C° 0 mm 3 m/S 755 mmHg 46%
    06:00 -9°C° 0 mm 3 m/S 755 mmHg 48%
    07:00 -8°C° 0 mm 3 m/S 755 mmHg 45%
    08:00 -9°C° 0 mm 4 m/S 755 mmHg 42%
    09:00 -8°C° 0 mm 4 m/S 755 mmHg 39%
    10:00 -7°C° 0 mm 4 m/S 754 mmHg 36%
    11:00 -5°C° 0 mm 4 m/S 754 mmHg 33%
    12:00 -5°C° 0 mm 4 m/S 754 mmHg 30%
    13:00 -4°C° 0 mm 4 m/S 753 mmHg 30%
    14:00 -4°C° 0 mm 4 m/S 753 mmHg 31%
    15:00 -4°C° 0 mm 4 m/S 752 mmHg 31%
    16:00 -5°C° 0 mm 4 m/S 752 mmHg 35%
    17:00 -6°C° 0 mm 3 m/S 752 mmHg 39%
    18:00 -7°C° 0 mm 3 m/S 752 mmHg 43%
    19:00 -7°C° 0 mm 3 m/S 752 mmHg 45%
    20:00 -7°C° 0 mm 3 m/S 752 mmHg 48%
    21:00 -6°C° 0 mm 2 m/S 752 mmHg 50%
    22:00 -7°C° 0 mm 2 m/S 752 mmHg 52%
    23:00 -7°C° 0 mm 2 m/S 752 mmHg 55%
    Mehr zeigen